Погода в Высоком Холме

Россия / Смоленская область     54°42′38″N   31°26′56″E
темп.,
°C
ветер,
м/с
пор.,
м/с
влажн.,
%
обл.,
%
осадки,
мм/ч
давл.,
гПа
погр.,
м
13 апреля, вт
вт1300:00+9вюв3588100 0.1 1022134
03:00+9юв2295100 0.7 102139
06:00+8вюв1192100 0.0 102111
09:00+12юв2280100 0.0 1021243
12:00+15юв3570100 0.0 1020681
15:00+15ю5868100 0.2 1019857
18:00+12ю41182100 0.2 1018476
21:00+10ююв3591100 0.3 101884
14 апреля, ср
ср1400:00+10ююв2592100 0.2 1018148
03:00+10ю239288 0.3 101779
06:00+9ююв2595100 0.3 1016145
09:00+9ююв2596100 0.8 1017166
12:00+13ю347480 0.2 1016730
15:00+14ю4465100 0.6 1016997
18:00+14юв3468100 0.2 1015799
21:00+10юв228399 0.2 101724
15 апреля, чт
чт1500:00+9всв2288100 0.2 101617
03:00+8св3596100 0.8 1016131
06:00+8ссв3698100 0.2 1016172
09:00+8с3896100 0.9 1016298
12:00+11с4683100 0.2 1015321
15:00+11всв3583100 1.1 1014309
18:00+9в3694100 1.9 1015315
21:00+8всв3794100 2.1 1015284
16 апреля, пт
пт1600:00+8св489698 0.1 1015330
03:00+8всв5119492 0.3 1015356
06:00+7всв6139585 0.1 1015403
09:00+8всв7128799 0.3 1016568
12:00+11всв71079100 0.0 1016848
15:00+10св6128799 1.9 1016584
18:00+11св71382100 0.2 1016725
21:00+10св71391100 1.4 1017533
17 апреля, сб
сб1700:00+9всв71393100 0.6 1018556
03:00+9всв6138295 0.1 1021620
06:00+7всв6128487 0.0 1022573
09:00+7всв61279100 0.0 1023584
12:00+9всв6107267 0.0 1025778
15:00+13всв785787 0.0 10241362
18:00+12всв6105472 0.0 1025955
21:00+9св512615 0.0 1027354